TimeCDT,TemperatureF,Dew PointF,Humidity,Sea Level PressureIn,VisibilityMPH,Wind Direction,Wind SpeedMPH,Gust SpeedMPH,PrecipitationIn,Events,Conditions,WindDirDegrees,DateUTC
12:53 AM,64.0,54.0,70,29.72,10.0,South,13.8,20.7,N/A,,Overcast,180,2013-04-08 05:53:00
1:53 AM,63.0,54.0,72,29.69,10.0,South,16.1,24.2,N/A,,Overcast,170,2013-04-08 06:53:00
2:53 AM,63.0,54.0,72,29.69,10.0,South,12.7,-,N/A,,Clear,190,2013-04-08 07:53:00
3:53 AM,63.0,54.0,72,29.68,10.0,SSW,10.4,-,N/A,,Mostly Cloudy,200,2013-04-08 08:53:00
4:08 AM,64.4,53.6,68,29.71,10.0,South,12.7,-,N/A,Thunderstorm,Thunderstorm,190,2013-04-08 09:08:00
4:25 AM,62.6,53.6,72,29.74,5.0,NW,8.1,-,0.04,Rain,Light Rain,310,2013-04-08 09:25:00
4:30 AM,60.8,55.4,82,29.74,2.0,Variable,5.8,-,0.20,Rain-Thunderstorm,Heavy Rain,0,2013-04-08 09:30:00
4:46 AM,64.4,53.6,68,29.73,8.0,West,9.2,34.5,0.23,Rain-Thunderstorm,Light Thunderstorms and Rain,270,2013-04-08 09:46:00
4:53 AM,63.0,55.0,75,29.70,9.0,Calm,Calm,-,0.23,Rain,Light Rain,0,2013-04-08 09:53:00
5:53 AM,63.0,54.0,72,29.69,10.0,South,4.6,-,0.00,,Mostly Cloudy,170,2013-04-08 10:53:00
6:53 AM,61.0,53.1,75,29.70,10.0,SSW,3.5,-,N/A,,Clear,200,2013-04-08 11:53:00
7:53 AM,62.1,53.1,72,29.71,10.0,South,4.6,-,N/A,,Clear,190,2013-04-08 12:53:00
8:53 AM,64.0,54.0,70,29.73,10.0,SSW,8.1,17.3,N/A,,Clear,200,2013-04-08 13:53:00
9:53 AM,68.0,55.0,63,29.74,10.0,SSW,10.4,-,N/A,,Partly Cloudy,210,2013-04-08 14:53:00
10:53 AM,70.0,55.0,59,29.76,10.0,WSW,10.4,-,N/A,,Mostly Cloudy,240,2013-04-08 15:53:00
11:53 AM,71.1,55.9,59,29.75,10.0,South,3.5,-,N/A,,Mostly Cloudy,190,2013-04-08 16:53:00
12:53 PM,73.9,55.9,53,29.74,10.0,NNE,3.5,-,N/A,,Scattered Clouds,20,2013-04-08 17:53:00
1:53 PM,77.0,55.0,47,29.72,10.0,SE,6.9,-,N/A,,Partly Cloudy,140,2013-04-08 18:53:00
2:53 PM,77.0,53.1,43,29.71,10.0,SSE,16.1,23.0,N/A,,Scattered Clouds,150,2013-04-08 19:53:00
3:53 PM,78.1,55.0,45,29.70,10.0,SSE,16.1,23.0,N/A,,Partly Cloudy,160,2013-04-08 20:53:00
4:53 PM,77.0,55.0,47,29.70,10.0,South,10.4,-,N/A,,Partly Cloudy,190,2013-04-08 21:53:00
5:53 PM,75.9,55.0,48,29.70,10.0,SSE,9.2,-,N/A,,Mostly Cloudy,160,2013-04-08 22:53:00
6:53 PM,73.9,57.0,55,29.71,10.0,SE,8.1,-,N/A,,Overcast,130,2013-04-08 23:53:00
7:53 PM,73.0,55.9,55,29.72,10.0,ESE,9.2,-,N/A,,Overcast,110,2013-04-09 00:53:00
8:53 PM,72.0,55.9,57,29.74,10.0,ESE,10.4,-,N/A,,Overcast,110,2013-04-09 01:53:00
9:53 PM,72.0,57.9,61,29.78,9.0,SSW,19.6,27.6,N/A,,Overcast,200,2013-04-09 02:53:00
10:53 PM,70.0,57.9,65,29.79,10.0,SSE,5.8,-,N/A,,Overcast,150,2013-04-09 03:53:00
11:53 PM,70.0,57.0,63,29.79,10.0,SSE,11.5,-,N/A,,Overcast,160,2013-04-09 04:53:00